Weerspreuk van de week: Is in de herfst het weer lang klaar, vroeg is een strenge winter daar.
Het weer levert geen direct gevaar op.    Er zijn geen waarschuwingen afgegeven.
Wil je droog trainen? Wil je spiermassa ontwikkelen? bestel snel!

Onweer radar Meer informatie blitzortung!


Regen radar Meer informatie rain snow radar


Bekijk deze sites ook eens:

Awekas

Canon

Het weer actueel

Nieuw horloge

FPL Automotive (TIP)

Paradigit

Autostekkers.nl (TIP)

Over Luyksgestel

Zooplus

De Kempen, mijn omgeving

Douglas

BOL.com

Weerstation Noordbergum

Inktweb

Weerstation Hapert

Weerstation Hoogeloon

Youfone

Weerstation Son&Breugel

Weerstation Castaert

Weerstation Tilburg Reeshof

Weerstation Scheulder

Weerverwachting Samos

Samos actueel

Weerwoord (forum)

Griekenlandforum

Wolven in Nederland



ILUYKSGE3 History tables / reports. Script startWUhistory.php

Select another period ( hide this area )

Eenheden Periode Custom range Directly to
Metrisch Engels Beide
Dagelijkse Wekelijkse Maandelijkse Jaarlijkse
use both date-selectors for a custom range
previous Dag
With this date

WeatherUnderground graphs for this period ( click here ) Loading the graph can take up to a minute!


Dagelijkse Samenvatting Woensdag Sep 29 2021
Tijd Temp. ( °C ) Dew pt. ( °C ) Wind ( km/h ) van Windvlaag ( km/h ) Luchtdruk ( hPa ) Humid.( % ) Rainrate ( cm )
Hoog12,5 10,3 6,0 WZW ( 6/14 ) 10,0 1016,6 87 -
Gemiddeld12,2 10,0 0,3 Kalm #40/45 3,2 1015,4 86 -
Laag11,9 9,8 -   0,0 1013,9 86 -
Dagelijkse Tabular details for Woensdag Sep 29 2021
Tijd Temp. ( °C ) Dew pt. ( °C ) Wind ( km/h ) van Windvlaag ( km/h ) Luchtdruk ( hPa ) Humid.( % ) Rainrate ( cm )
00:00 12,0 9,9   Kalm   1016,6 87 -
00:06 12,0 9,9   Kalm   1016,6 87 -
00:11 12,0 9,9   Kalm   1016,6 87 -
00:16 12,1 10,0   Kalm 3,0 1016,3 87 -
00:21 12,0 9,9   Kalm 2,0 1016,3 87 -
00:26 12,1 10,0   Kalm   1016,3 87 -
00:31 12,1 10,0   Kalm   1016,3 87 -
00:36 12,1 10,0   Kalm   1016,3 87 -
00:42 12,1 10,0   Kalm 6,0 1016,3 87 -
00:47 12,0 9,9   Kalm   1016,3 87 -
00:52 11,9 9,8   Kalm 2,0 1016,3 87 -
00:57 11,9 9,8   Kalm 6,0 1016,3 87 -
01:02 11,9 9,8   Kalm   1015,9 87 -
01:07 11,9 9,8   Kalm   1015,9 87 -
01:12 12,0 9,9   Kalm   1015,9 87 -
01:18 12,1 10,0   Kalm 2,0 1015,9 87 -
01:23 12,1 10,0   Kalm 2,0 1015,9 87 -
01:28 12,2 10,1   Kalm   1015,9 87 -
01:34 12,3 10,2   Kalm   1015,6 87 -
01:39 12,3 10,2   Kalm 3,0 1015,6 87 -
01:44 12,4 10,3   Kalm   1015,6 87 -
01:49 12,4 10,1   Kalm   1015,6 86 -
01:54 12,4 10,1 3,0 ZZW 3,0 1015,6 86 -
01:59 12,5 10,2   Kalm 6,0 1015,6 86 -
02:04 12,5 10,2   Kalm 6,0 1015,2 86 -
02:09 12,4 10,1   Kalm   1015,2 86 -
02:14 12,4 10,1 1,0 ZZW 6,0 1015,2 86 -
02:19 12,4 10,1   Kalm 5,0 1015,2 86 -
02:24 12,4 10,1   Kalm   1015,2 86 -
02:29 12,3 10,0   Kalm 8,0 1015,2 86 -
02:34 12,3 10,0   Kalm 3,0 1014,9 86 -
02:39 12,3 10,0   Kalm   1014,9 86 -
02:44 12,3 10,0   Kalm 2,0 1014,6 86 -
02:49 12,3 10,0   Kalm 2,0 1014,6 86 -
02:54 12,3 10,0   Kalm 8,0 1014,6 86 -
02:59 12,3 10,0   Kalm 8,0 1014,6 86 -
03:04 12,3 10,0   Kalm 10,0 1014,6 86 -
03:09 12,3 10,0 6,0 WZW 6,0 1014,6 86 -
03:14 12,3 10,0   Kalm 8,0 1014,2 86 -
03:19 12,2 9,9 3,0 ZW 10,0 1014,2 86 -
03:24 12,2 9,9   Kalm 5,0 1014,2 86 -
03:29 12,2 9,9 1,0 ZZO 5,0 1014,2 86 -
03:34 12,1 9,8   Kalm 2,0 1014,2 86 -
03:39 12,1 9,8   Kalm 3,0 1014,2 86 -
03:44 12,1 9,8   Kalm 10,0 1013,9 86 -
Dagelijkse Samenvatting Woensdag Sep 29 2021
Tijd Temp. ( °C ) Dew pt. ( °C ) Wind ( km/h ) van Windvlaag ( km/h ) Luchtdruk ( hPa ) Humid.( % ) Rainrate ( cm )
Hoog12,5 10,3 6,0 WZW ( 6/14 ) 10,0 1016,6 87 -
Gemiddeld12,2 10,0 0,3 Kalm #40/45 3,2 1015,4 86 -
Laag11,9 9,8 -   0,0 1013,9 86 -
Dagelijkse Tabular details for Woensdag Sep 29 2021
Tijd Temp. ( °C ) Dew pt. ( °C ) Wind ( km/h ) van Windvlaag ( km/h ) Luchtdruk ( hPa ) Humid.( % ) Rainrate ( cm )
00:00 12,0 9,9   Kalm   1016,6 87 -
00:06 12,0 9,9   Kalm   1016,6 87 -
00:11 12,0 9,9   Kalm   1016,6 87 -
00:16 12,1 10,0   Kalm 3,0 1016,3 87 -
00:21 12,0 9,9   Kalm 2,0 1016,3 87 -
00:26 12,1 10,0   Kalm   1016,3 87 -
00:31 12,1 10,0   Kalm   1016,3 87 -
00:36 12,1 10,0   Kalm   1016,3 87 -
00:42 12,1 10,0   Kalm 6,0 1016,3 87 -
00:47 12,0 9,9   Kalm   1016,3 87 -
00:52 11,9 9,8   Kalm 2,0 1016,3 87 -
00:57 11,9 9,8   Kalm 6,0 1016,3 87 -
01:02 11,9 9,8   Kalm   1015,9 87 -
01:07 11,9 9,8   Kalm   1015,9 87 -
01:12 12,0 9,9   Kalm   1015,9 87 -
01:18 12,1 10,0   Kalm 2,0 1015,9 87 -
01:23 12,1 10,0   Kalm 2,0 1015,9 87 -
01:28 12,2 10,1   Kalm   1015,9 87 -
01:34 12,3 10,2   Kalm   1015,6 87 -
01:39 12,3 10,2   Kalm 3,0 1015,6 87 -
01:44 12,4 10,3   Kalm   1015,6 87 -
01:49 12,4 10,1   Kalm   1015,6 86 -
01:54 12,4 10,1 3,0 ZZW 3,0 1015,6 86 -
01:59 12,5 10,2   Kalm 6,0 1015,6 86 -
02:04 12,5 10,2   Kalm 6,0 1015,2 86 -
02:09 12,4 10,1   Kalm   1015,2 86 -
02:14 12,4 10,1 1,0 ZZW 6,0 1015,2 86 -
02:19 12,4 10,1   Kalm 5,0 1015,2 86 -
02:24 12,4 10,1   Kalm   1015,2 86 -
02:29 12,3 10,0   Kalm 8,0 1015,2 86 -
02:34 12,3 10,0   Kalm 3,0 1014,9 86 -
02:39 12,3 10,0   Kalm   1014,9 86 -
02:44 12,3 10,0   Kalm 2,0 1014,6 86 -
02:49 12,3 10,0   Kalm 2,0 1014,6 86 -
02:54 12,3 10,0   Kalm 8,0 1014,6 86 -
02:59 12,3 10,0   Kalm 8,0 1014,6 86 -
03:04 12,3 10,0   Kalm 10,0 1014,6 86 -
03:09 12,3 10,0 6,0 WZW 6,0 1014,6 86 -
03:14 12,3 10,0   Kalm 8,0 1014,2 86 -
03:19 12,2 9,9 3,0 ZW 10,0 1014,2 86 -
03:24 12,2 9,9   Kalm 5,0 1014,2 86 -
03:29 12,2 9,9 1,0 ZZO 5,0 1014,2 86 -
03:34 12,1 9,8   Kalm 2,0 1014,2 86 -
03:39 12,1 9,8   Kalm 3,0 1014,2 86 -
03:44 12,1 9,8   Kalm 10,0 1013,9 86 -

Download your copy of this data-set  here

Our weather-data as stored at Weather Underground. Script ontwikkeld door Jim McMurry. Rewritten for template use Leuven-Template

U vindt ons ook hier:

Het Weer Aktueel

UK Metoffice

European Weather Network

Weather Underground

AWEKAS

HAIR FUSION HAARGROEI